Date String (YYYY-MM-DD hh:mm:ss) UTC,Instrument flags,Ambient pressure (hPa),Sample flow (lpm),Bypass flow (lpm),Sample temperature (°C),Ambient temperature (°C),ASC tube jacket temperature (°C),LED temperature (°C),Box temperature (°C),Sample RH (%),Span deviation,Mass concentration (μg/m³),Mass concentration (μg/m³),Mass concentration (μg/m³)
DateTimeUTC,F1_M11,P_M11,Q1_M11,Q2_M11,T1_M11,T2_M11,T3_M11,T4_M11,T5_M11,U1_M11,ZSPAN_M11,X0_M11,X2_M11,X1_M11
2022-01-08 14:00:00,,0814.3,4.99,0.00,22.9,22.2,00.0,32.0,24.7,12.2,0000.0,0000.83,0000.59,0000.52
2022-01-08 14:01:00,,0814.3,5.00,0.00,22.9,22.3,00.0,32.0,24.8,12.2,0000.0,0000.80,0000.58,0000.52
2022-01-08 14:02:00,,0814.4,5.00,0.00,23.0,22.3,00.0,32.0,24.8,12.2,0000.0,0000.83,0000.60,0000.52
2022-01-08 14:03:00,,0814.4,5.01,0.00,22.9,22.3,00.0,32.0,24.8,12.2,0000.0,0000.87,0000.61,0000.52
2022-01-08 14:04:00,,0814.6,5.00,0.00,22.9,22.3,00.0,32.0,24.8,12.4,0000.0,0000.86,0000.60,0000.52
2022-01-08 14:05:00,,0814.5,4.98,0.00,22.9,22.2,00.0,32.0,24.8,12.3,0000.0,0000.80,0000.59,0000.52
2022-01-08 14:06:00,,0814.6,5.01,0.00,22.9,22.2,00.0,32.0,24.8,12.3,0000.0,0000.85,0000.61,0000.53
2022-01-08 14:07:00,,0814.6,5.00,0.00,22.9,22.2,00.0,32.0,24.7,12.3,0000.0,0000.89,0000.63,0000.53
2022-01-08 14:08:00,,0814.8,5.00,0.00,22.9,22.2,00.0,32.0,24.7,12.2,0000.0,0000.85,0000.61,0000.53
2022-01-08 14:09:00,,0814.7,5.00,0.00,22.9,22.3,00.0,32.0,24.7,12.2,0000.0,0000.77,0000.59,0000.52
2022-01-08 14:10:00,,0814.6,4.99,0.00,22.9,22.3,00.0,32.0,24.7,12.1,0000.0,0000.76,0000.58,0000.52
2022-01-08 14:11:00,,0814.5,5.01,0.00,23.0,22.3,00.0,32.0,24.8,12.0,0000.0,0000.80,0000.59,0000.52
2022-01-08 14:12:00,,0814.6,4.99,0.00,23.0,22.3,00.0,32.0,24.8,12.0,0000.0,0000.79,0000.59,0000.52
2022-01-08 14:13:00,,0814.6,5.01,0.00,23.0,22.3,00.0,32.0,24.8,12.0,0000.0,0000.79,0000.59,0000.52
2022-01-08 14:14:00,,0814.9,4.99,0.00,23.0,22.3,00.0,32.0,24.8,11.9,0000.0,0000.77,0000.59,0000.52
2022-01-08 14:15:00,,0814.4,5.01,0.00,23.0,22.3,00.0,32.0,24.8,11.9,0000.0,0000.87,0000.61,0000.52
2022-01-08 14:16:00,,0814.8,5.00,0.00,22.9,22.3,00.0,32.0,24.8,11.9,0000.0,0000.94,0000.65,0000.53
2022-01-08 14:17:00,,0814.6,4.99,0.00,22.9,22.2,00.0,31.9,24.8,11.9,0000.0,0000.92,0000.64,0000.53
2022-01-08 14:18:00,,0814.7,4.99,0.00,22.9,22.2,00.0,32.0,24.8,11.9,0000.0,0000.87,0000.62,0000.51
2022-01-08 14:19:00,,0814.7,5.02,0.00,22.9,22.2,00.0,31.9,24.7,11.9,0000.0,0000.90,0000.63,0000.52
2022-01-08 14:20:00,,0815.0,5.01,0.00,22.9,22.2,00.0,31.9,24.7,12.0,0000.0,0000.96,0000.65,0000.52
2022-01-08 14:21:00,,0814.7,5.00,0.00,22.9,22.2,00.0,31.9,24.6,12.6,0000.0,0000.98,0000.66,0000.52
2022-01-08 14:22:00,,0814.6,4.99,0.00,22.9,22.2,00.0,31.9,24.6,12.7,0000.0,0000.94,0000.64,0000.51
2022-01-08 14:23:00,,0814.7,5.00,0.00,22.9,22.2,00.0,31.9,24.6,12.8,0000.0,0000.94,0000.63,0000.50
2022-01-08 14:24:00,,0814.6,4.99,0.00,22.9,22.2,00.0,31.9,24.6,12.8,0000.0,0000.90,0000.62,0000.50
2022-01-08 14:25:00,,0815.1,5.01,0.00,22.9,22.1,00.0,31.9,24.6,12.7,0000.0,0001.03,0000.62,0000.49
2022-01-08 14:26:00,,0815.2,4.98,0.00,22.9,22.2,00.0,31.9,24.6,12.5,0000.0,0000.97,0000.59,0000.49
2022-01-08 14:27:00,,0815.0,5.00,0.00,22.9,22.2,00.0,31.9,24.6,12.5,0000.0,0000.95,0000.57,0000.48
2022-01-08 14:28:00,,0815.1,5.00,0.00,22.9,22.2,00.0,31.9,24.6,12.6,0000.0,0000.95,0000.57,0000.48
2022-01-08 14:29:00,,0814.8,5.00,0.00,22.9,22.2,00.0,31.9,24.6,12.9,0000.0,0000.93,0000.56,0000.48
2022-01-08 14:30:00,,0814.8,5.00,0.00,22.9,22.2,00.0,31.9,24.6,13.0,0000.0,0000.89,0000.54,0000.47
2022-01-08 14:31:00,,0814.9,5.00,0.00,22.9,22.2,00.0,31.9,24.6,13.0,0000.0,0000.83,0000.52,0000.47
2022-01-08 14:32:00,,0815.1,4.99,0.00,22.9,22.2,00.0,31.9,24.7,13.2,0000.0,0000.81,0000.51,0000.47
2022-01-08 14:33:00,,0815.2,5.01,0.00,22.9,22.2,00.0,31.9,24.7,13.1,0000.0,0000.82,0000.51,0000.47
2022-01-08 14:34:00,,0815.0,5.00,0.00,22.9,22.2,00.0,31.9,24.6,13.1,0000.0,0000.82,0000.51,0000.47
2022-01-08 14:35:00,,0815.1,5.00,0.00,22.9,22.2,00.0,31.9,24.6,13.2,0000.0,0000.82,0000.51,0000.46
2022-01-08 14:36:00,,0814.9,4.98,0.00,22.9,22.2,00.0,31.9,24.6,13.3,0000.0,0000.68,0000.50,0000.45
2022-01-08 14:37:00,,0815.0,4.99,0.00,22.8,22.2,00.0,31.9,24.6,13.3,0000.0,0000.65,0000.49,0000.44
2022-01-08 14:38:00,,0814.8,5.00,0.00,22.9,22.2,00.0,31.9,24.6,13.2,0000.0,0000.62,0000.48,0000.43
2022-01-08 14:39:00,,0815.0,5.00,0.00,22.9,22.1,00.0,31.9,24.6,13.2,0000.0,0000.61,0000.47,0000.43
2022-01-08 14:40:00,,0814.9,5.00,0.00,22.9,22.1,00.0,31.9,24.6,13.3,0000.0,0000.61,0000.47,0000.42
2022-01-08 14:41:00,,0814.8,5.00,0.00,22.9,22.1,00.0,31.9,24.5,13.4,0000.0,0000.60,0000.46,0000.42
2022-01-08 14:42:00,,0814.8,5.00,0.00,22.8,22.1,00.0,31.9,24.6,13.4,0000.0,0000.61,0000.45,0000.40
2022-01-08 14:43:00,,0814.9,4.99,0.00,22.8,22.1,00.0,31.9,24.5,13.5,0000.0,0000.64,0000.46,0000.40
2022-01-08 14:44:00,,0814.9,5.01,0.00,22.8,22.1,00.0,31.9,24.6,13.4,0000.0,0000.65,0000.47,0000.40
2022-01-08 14:45:00,,0814.9,5.00,0.00,22.9,22.1,00.0,31.9,24.6,13.5,0000.0,0000.65,0000.47,0000.39
2022-01-08 14:46:00,,0814.9,5.00,0.00,22.9,22.1,00.0,31.9,24.6,13.4,0000.0,0000.79,0000.51,0000.40
2022-01-08 14:47:00,,0814.9,5.00,0.00,22.9,22.1,00.0,31.9,24.6,13.5,0000.0,0000.78,0000.50,0000.40
2022-01-08 14:48:00,,0815.0,4.99,0.00,22.9,22.1,00.0,31.9,24.6,13.4,0000.0,0000.76,0000.50,0000.40
2022-01-08 14:49:00,,0815.0,5.01,0.00,22.9,22.1,00.0,31.9,24.6,13.3,0000.0,0000.75,0000.49,0000.39
2022-01-08 14:50:00,,0815.0,5.00,0.00,22.9,22.2,00.0,31.9,24.7,13.2,0000.0,0000.74,0000.49,0000.39
2022-01-08 14:51:00,,0815.0,4.99,0.00,22.9,22.2,00.0,31.9,24.7,13.2,0000.0,0000.77,0000.50,0000.39
2022-01-08 14:52:00,,0815.0,5.01,0.00,22.9,22.2,00.0,31.9,24.7,13.3,0000.0,0000.79,0000.51,0000.39
2022-01-08 14:53:00,,0815.1,5.00,0.00,22.9,22.2,00.0,31.9,24.7,13.5,0000.0,0000.77,0000.51,0000.40
2022-01-08 14:54:00,,0815.2,5.01,0.00,22.9,22.2,00.0,31.9,24.6,13.4,0000.0,0000.96,0000.50,0000.39
2022-01-08 14:55:00,,0815.2,5.00,0.00,22.9,22.2,00.0,31.9,24.6,13.3,0000.0,0000.98,0000.51,0000.40
2022-01-08 14:56:00,,0815.6,5.00,0.00,22.9,22.2,00.0,31.9,24.6,13.4,0000.0,0001.07,0000.54,0000.40
2022-01-08 14:57:00,,0815.5,4.99,0.00,22.9,22.2,00.0,31.9,24.6,13.4,0000.0,0000.93,0000.50,0000.38
2022-01-08 14:58:00,,0815.3,5.01,0.00,22.9,22.2,00.0,31.9,24.6,13.4,0000.0,0000.91,0000.49,0000.38
2022-01-08 14:59:00,,0815.3,5.01,0.00,22.9,22.2,00.0,31.9,24.7,13.5,0000.0,0000.91,0000.49,0000.37
